KINEIS-1E

Last updated on Thu Sep 24 2026 00:03:12 GMT+0000 (Coordinated Universal Time)

1 60083U 24114E 26266.62944910 .00000447 00000+0 64776-4 0 9994 2 60083 97.8929 288.5016 0001339 226.5272 133.5829 14.80778887121952
UTC large
Height (km)
Speed (km/s)
/
Latitude / Longitude
Inclination (degrees)
Orbital Period (minutes)
Azimuth
Elevation
Range (km)
Doppler Factor

Next 0 passes for location: London (51.5072 / 0.1276)

No passes found over London.
KINEIS-1E